EW7144 Weather Reports


Display with metric or nautical units.
time (UTC)temp
F
wind
direction
speed
MPH
gust
MPH
rain 1hr
in
rain 24hr
in
rain mn
in
humidity
%
barometer
mb
20260503001904 62 345 2.0 7.0 0.00 0.01 0.01 77 1034.4
20260503001404 62 309 3.0 8.0 0.00 0.01 0.01 77 1034.5
20260503000404 63 343 2.0 6.0 0.00 0.01 0.01 77 1034.6
20260502235904 62 303 2.0 6.0 0.00 0.01 0.01 78 1034.7
20260502235404 63 300 2.0 5.0 0.00 0.01 0.01 77 1034.7
20260502234904 62 343 2.0 3.0 0.00 0.01 0.01 77 1034.7
20260502233904 61 274 2.0 3.0 0.00 0.01 0.01 78 1034.8
20260502232905 61 346 1.0 3.0 0.00 0.01 0.01 78 1034.9
20260502232406 61 350 2.0 5.0 0.00 0.01 0.01 79 1034.9
20260502231904 61 342 3.0 3.0 0.00 0.01 0.01 78 1035.0
20260502231404 61 344 1.0 3.0 0.00 0.01 0.01 79 1034.9
20260502230904 61 351 2.0 3.0 0.00 0.01 0.01 77 1034.9
20260502230404 61 357 0.0 2.0 0.00 0.01 0.01 78 1035.0
20260502225904 61 358 0.0 1.0 0.00 0.01 0.01 78 1034.9
20260502225404 61 359 1.0 2.0 0.00 0.01 0.01 79 1035.0
20260502224904 61 359 0.0 2.0 0.00 0.01 0.01 79 1035.1
20260502224405 60 359 1.0 2.0 0.00 0.01 0.01 81 1035.1
20260502223904 60 13 1.0 2.0 0.00 0.01 0.01 83 1035.2
20260502223406 59 0 1.0 3.0 0.00 0.01 0.01 84 1035.2
20260502222904 59 1 1.0 3.0 0.00 0.01 0.01 86 1035.2
20260502222405 58 28 1.0 2.0 0.00 0.01 0.01 87 1035.1
20260502220905 58 4 3.0 5.0 0.00 0.01 0.01 89 1035.1
20260502215904 58 206 1.0 2.0 0.00 0.01 0.01 90 1035.1
20260502215404 57 154 0.0 1.0 0.00 0.01 0.01 91 1035.1
20260502214904 57 154 1.0 2.0 0.00 0.01 0.01 91 1035.1
20260502214406 56 154 1.0 1.0 0.00 0.01 0.01 91 1035.1
20260502213904 56 154 1.0 1.0 0.00 0.01 0.01 91 1035.2
20260502213404 55 154 0.0 1.0 0.00 0.01 0.01 91 1035.2
20260502212905 55 154 1.0 1.0 0.00 0.01 0.01 91 1035.1
20260502212404 55 154 0.0 1.0 0.00 0.01 0.01 91 1035.2
20260502211904 54 154 0.0 1.0 0.00 0.01 0.01 91 1035.1
20260502211404 54 154 0.0 1.0 0.00 0.01 0.01 91 1035.2
20260502210904 54 154 0.0 1.0 0.00 0.01 0.01 91 1035.2
20260502210404 54 154 0.0 1.0 0.00 0.01 0.01 91 1035.1
20260502205904 54 154 0.0 1.0 0.00 0.01 0.01 91 1035.1
20260502204903 52 154 0.0 0.0 0.00 0.01 0.01 91 1035.1
20260502204404 52 154 0.0 0.0 0.00 0.01 0.01 91 1035.1
20260502203904 51 154 0.0 0.0 0.00 0.01 0.01 91 1035.0
20260502203404 51 154 0.0 0.0 0.00 0.01 0.01 91 1035.0
20260502202904 50 154 0.0 0.0 0.00 0.01 0.01 91 1035.0
20260502202404 49 154 0.0 0.0 0.00 0.01 0.01 91 1034.9
20260502201906 49 154 0.0 0.0 0.00 0.01 0.01 91 1034.9
20260502201405 49 154 0.0 0.0 0.00 0.01 0.01 91 1034.9
20260502200904 49 154 0.0 0.0 0.00 0.01 0.01 91 1034.8
20260502200406 49 154 0.0 0.0 0.00 0.01 0.01 91 1034.8
20260502195404 49 154 0.0 0.0 0.00 0.01 0.01 91 1034.7
20260502194406 49 154 0.0 0.0 0.00 0.01 0.01 91 1034.6
20260502193405 49 155 0.0 0.0 0.00 0.01 0.01 91 1034.6
20260502192406 49 155 0.0 1.0 0.00 0.01 0.01 91 1034.5
20260502191905 49 154 0.0 0.0 0.00 0.01 0.01 91 1034.5
20260502191405 48 154 0.0 0.0 0.00 0.01 0.01 91 1034.5
20260502190905 48 154 0.0 0.0 0.00 0.01 0.01 91 1034.5
20260502190406 48 154 0.0 0.0 0.00 0.01 0.01 91 1034.5
20260502185904 48 154 0.0 0.0 0.00 0.01 0.01 91 1034.5
20260502185405 48 154 0.0 0.0 0.00 0.01 0.01 91 1034.5
20260502184905 48 154 0.0 0.0 0.00 0.01 0.01 91 1034.5
20260502184406 48 154 0.0 0.0 0.00 0.01 0.01 91 1034.5
20260502183904 49 154 0.0 0.0 0.00 0.01 0.01 91 1034.5
20260502183404 49 154 0.0 0.0 0.00 0.01 0.01 91 1034.4
20260502181906 49 154 0.0 1.0 0.00 0.01 0.01 91 1034.5
20260502181405 49 154 0.0 2.0 0.00 0.01 0.01 91 1034.4
20260502180904 49 164 0.0 1.0 0.00 0.01 0.01 91 1034.4
20260502180405 49 175 0.0 0.0 0.00 0.01 0.01 91 1034.5
20260502170404 49 175 0.0 0.0 0.00 0.01 0.01 90 1034.5
20260502163905 49 175 0.0 0.0 0.00 0.01 0.01 90 1034.6
20260502163406 49 175 0.0 1.0 0.00 0.01 0.01 90 1034.6
20260502162904 49 145 0.0 0.0 0.00 0.01 0.01 90 1034.5
20260502162405 49 145 0.0 1.0 0.00 0.01 0.01 90 1034.5
20260502161905 49 145 0.0 1.0 0.00 0.01 0.01 90 1034.5
20260502161406 49 145 0.0 0.0 0.00 0.01 0.01 90 1034.5
20260502160904 49 145 0.0 1.0 0.00 0.01 0.01 90 1034.4
20260502160404 49 145 0.0 1.0 0.00 0.01 0.01 90 1034.4
20260502151906 51 145 0.0 1.0 0.00 0.01 0.01 90 1034.5
20260502151404 51 145 1.0 2.0 0.00 0.01 0.01 90 1034.5
20260502150905 51 145 0.0 1.0 0.00 0.01 0.01 90 1034.5
20260502150406 51 145 1.0 2.0 0.00 0.01 0.01 90 1034.5
20260502130406 51 132 0.0 1.0 0.00 0.00 0.00 90 1034.3
20260502123410 51 131 0.0 1.0 0.00 0.00 0.00 90 1034.2
20260502122909 51 132 1.0 3.0 0.00 0.00 0.00 90 1034.3
20260502122409 50 134 1.0 3.0 0.00 0.00 0.00 90 1034.2
20260502121909 50 125 1.0 2.0 0.00 0.00 0.00 90 1034.1
20260502120909 50 117 0.0 0.0 0.00 0.00 0.00 90 1034.1
20260502120410 50 117 0.0 1.0 0.00 0.00 0.00 90 1034.0
20260502115909 51 117 0.0 1.0 0.00 0.00 0.00 90 1034.0
20260502115410 51 118 0.0 1.0 0.00 0.00 0.00 90 1033.9
20260502114908 51 118 0.0 1.0 0.00 0.00 0.00 90 1033.9
20260502113909 51 117 0.0 0.0 0.00 0.00 0.00 90 1033.8
20260502113410 51 118 0.0 1.0 0.00 0.00 0.00 90 1033.8
20260502112909 51 118 0.0 1.0 0.00 0.00 0.00 89 1033.7
20260502112411 51 118 0.0 1.0 0.00 0.00 0.00 89 1033.7
20260502111909 51 118 0.0 1.0 0.00 0.00 0.00 89 1033.7
20260502111409 51 118 0.0 1.0 0.00 0.00 0.00 89 1033.7
20260502110909 51 118 0.0 1.0 0.00 0.00 0.00 89 1033.7
20260502110409 51 118 0.0 1.0 0.00 0.00 0.00 89 1033.8
20260502105909 51 117 0.0 1.0 0.00 0.00 0.00 89 1033.8
20260502104410 51 118 0.0 0.0 0.00 0.00 0.00 89 1033.8
20260502102909 51 117 0.0 1.0 0.00 0.00 0.00 88 1033.7
20260502101909 51 117 0.0 1.0 0.00 0.00 0.00 88 1033.6
20260502101410 52 117 0.0 1.0 0.00 0.00 0.00 88 1033.6
20260502100909 52 117 0.0 1.0 0.00 0.00 0.00 88 1033.6
20260502100409 52 117 0.0 1.0 0.00 0.00 0.00 88 1033.5
20260502090906 53 117 0.0 1.0 0.00 0.00 0.00 88 1033.0
20260502090407 53 118 1.0 3.0 0.00 0.00 0.00 88 1032.9
20260502071408 53 101 0.0 1.0 0.00 0.00 0.00 86 1032.4
20260502070907 53 105 0.0 1.0 0.00 0.00 0.00 86 1032.3
20260502070407 53 106 1.0 2.0 0.00 0.00 0.00 86 1032.3
20260502065906 53 108 0.0 1.0 0.00 0.00 0.00 86 1032.3
20260502065407 54 101 0.0 2.0 0.00 0.00 0.00 86 1032.3
20260502064907 54 90 1.0 3.0 0.00 0.00 0.00 86 1032.2
20260502064407 54 113 0.0 2.0 0.00 0.00 0.00 86 1032.1
20260502063907 54 101 0.0 1.0 0.00 0.00 0.00 86 1032.0
20260502063407 54 103 0.0 1.0 0.00 0.00 0.00 86 1031.9
20260502062907 54 112 0.0 1.0 0.00 0.00 0.00 85 1031.9
20260502062406 54 112 0.0 3.0 0.00 0.00 0.00 85 1031.8
20260502061906 54 130 0.0 2.0 0.00 0.00 0.00 85 1031.7
20260502061407 55 119 0.0 1.0 0.00 0.00 0.00 85 1031.7
20260502055907 55 112 1.0 7.0 0.00 0.00 0.00 84 1031.7
20260502055406 55 121 2.0 5.0 0.00 0.00 0.00 84 1031.7
20260502053907 56 116 3.0 8.0 0.00 0.00 0.00 83 1031.5
20260502053406 56 106 2.0 7.0 0.00 0.00 0.00 82 1031.4
20260502052907 57 108 2.0 6.0 0.00 0.00 0.00 82 1031.4
20260502052407 57 135 1.0 5.0 0.00 0.00 0.00 82 1031.3
20260502051907 57 120 3.0 7.0 0.00 0.00 0.00 82 1031.4
20260502051406 57 82 3.0 9.0 0.00 0.00 0.00 81 1031.4
20260502050407 58 115 3.0 9.0 0.00 0.00 0.00 80 1031.3
20260502045906 58 101 4.0 9.0 0.00 0.00 0.00 80 1031.4
20260502045407 58 78 2.0 7.0 0.00 0.00 0.00 80 1031.3
20260502044907 58 83 5.0 9.0 0.00 0.00 0.00 79 1031.3
20260502044406 59 71 3.0 9.0 0.00 0.00 0.00 79 1031.3
20260502043907 59 104 4.0 9.0 0.00 0.00 0.00 79 1031.3
20260502043406 59 87 4.0 9.0 0.00 0.00 0.00 79 1031.2
20260502042906 59 83 3.0 10.0 0.00 0.00 0.00 79 1031.2
20260502041906 59 82 6.0 12.0 0.00 0.00 0.00 78 1031.2
20260502040907 60 96 4.0 10.0 0.00 0.00 0.00 78 1031.3
20260502040407 60 74 4.0 8.0 0.00 0.00 0.00 78 1031.3
20260502035907 60 96 6.0 12.0 0.00 0.00 0.00 77 1031.3
20260502035407 61 85 3.0 9.0 0.00 0.00 0.00 78 1031.4
20260502034907 60 103 2.0 7.0 0.00 0.00 0.00 79 1031.4
20260502034407 60 76 3.0 10.0 0.00 0.00 0.00 78 1031.4
20260502033907 60 126 4.0 9.0 0.00 0.00 0.00 78 1031.4
20260502033407 60 71 4.0 10.0 0.00 0.00 0.00 78 1031.4
20260502032906 61 94 3.0 12.0 0.00 0.00 0.00 77 1031.5
20260502032407 61 57 1.0 8.0 0.00 0.00 0.00 78 1031.5
20260502031407 61 64 3.0 9.0 0.00 0.00 0.00 77 1031.5
20260502030907 62 74 5.0 9.0 0.00 0.00 0.00 76 1031.5
20260502025907 62 37 3.0 8.0 0.00 0.00 0.00 76 1031.5
20260502025407 62 77 4.0 9.0 0.00 0.00 0.00 75 1031.5
20260502024906 63 62 2.0 5.0 0.00 0.00 0.00 75 1031.5
20260502023906 63 118 2.0 3.0 0.00 0.00 0.00 74 1031.6
20260502023406 63 37 0.0 6.0 0.00 0.00 0.00 74 1031.6
20260502022907 63 87 2.0 3.0 0.00 0.00 0.00 75 1031.7
20260502022406 62 72 2.0 5.0 0.00 0.00 0.00 75 1031.8
20260502021406 62 117 2.0 6.0 0.00 0.00 0.00 76 1031.9
20260502020407 62 51 2.0 6.0 0.00 0.00 0.00 77 1031.9
20260502015906 61 33 2.0 7.0 0.00 0.00 0.00 76 1032.0
20260502015407 62 53 3.0 10.0 0.00 0.00 0.00 75 1032.0
20260502014907 62 39 2.0 9.0 0.00 0.00 0.00 77 1032.0
20260502014407 61 60 3.0 7.0 0.00 0.00 0.00 77 1032.1
20260502013907 61 89 3.0 8.0 0.00 0.00 0.00 76 1032.2
20260502013406 62 37 3.0 7.0 0.00 0.00 0.00 75 1032.2
20260502012407 62 69 3.0 10.0 0.00 0.00 0.00 75 1032.3
20260502011906 63 53 3.0 12.0 0.00 0.00 0.00 75 1032.4
20260502011406 63 102 2.0 8.0 0.00 0.00 0.00 74 1032.5
20260502010907 63 103 2.0 7.0 0.00 0.00 0.00 73 1032.5
20260502010407 63 217 1.0 2.0 0.00 0.00 0.00 71 1032.5
20260502005906 63 242 1.0 2.0 0.00 0.00 0.00 73 1032.6
20260502005407 62 23 1.0 5.0 0.00 0.00 0.00 75 1032.7
20260502004407 63 7 4.0 6.0 0.00 0.00 0.00 73 1032.8
20260502003906 63 341 1.0 3.0 0.00 0.00 0.00 73 1032.9
20260502003406 63 238 1.0 3.0 0.00 0.00 0.00 73 1033.0
20260502002907 62 277 1.0 3.0 0.00 0.00 0.00 73 1033.1
20260502002407 62 214 1.0 3.0 0.00 0.00 0.00 72 1033.2